PIA455 OPSD-OPIS

Flight info

Callsign PIA455
Flight time 0h 42m
Altitude 30000
Route BIREB DCT DELDA DCT KAPMI DCT BOBAM
Aircraft A320/M-SDE3FGHIRWY/LB1

Departure

Time 2026-05-06 19:58
Airport Skardu International Airport (OPSD)

Arrival

Time 2026-05-06 20:40
Airport Islamabad International Airport (OPIS)
Time Latitude Longitude Altitude Speed Heading
2026-05-06 19:35 35.33098 75.54187 7364 ft 0 kts 147°
2026-05-06 19:51 35.33105 75.54181 7363 ft 4 kts 143°
2026-05-06 19:51 35.33123 75.54159 7365 ft 4 kts 115°
2026-05-06 19:51 35.33129 75.54128 7365 ft 4 kts 79°
2026-05-06 19:52 35.33124 75.54110 7364 ft 0 kts 57°
2026-05-06 19:54 35.33140 75.54139 7364 ft 10 kts 57°
2026-05-06 19:54 35.33173 75.54202 7364 ft 8 kts 57°
2026-05-06 19:54 35.33189 75.54230 7364 ft 0 kts 57°
2026-05-06 19:55 35.33199 75.54249 7364 ft 10 kts 57°
2026-05-06 19:55 35.33214 75.54278 7364 ft 0 kts 56°
2026-05-06 19:56 35.33220 75.54288 7364 ft 7 kts 56°
2026-05-06 19:57 35.33266 75.54371 7364 ft 11 kts 348°
2026-05-06 19:57 35.33283 75.54357 7364 ft 2 kts 323°
2026-05-06 19:57 35.33432 75.54227 7364 ft 67 kts 327°
2026-05-06 19:57 35.34073 75.53724 7363 ft 148 kts 327°
2026-05-06 19:58 35.35095 75.52905 7606 ft 190 kts 324°
2026-05-06 19:58 35.36238 75.51995 8300 ft 201 kts 326°
2026-05-06 19:58 35.37420 75.51051 9124 ft 204 kts 326°
2026-05-06 19:58 35.38618 75.50091 9942 ft 206 kts 328°
2026-05-06 19:59 35.39802 75.49132 10707 ft 206 kts 327°
2026-05-06 19:59 35.40987 75.48143 11493 ft 205 kts 325°
2026-05-06 19:59 35.42154 75.47130 12230 ft 206 kts 326°
2026-05-06 19:59 35.43337 75.46103 13077 ft 212 kts 327°
2026-05-06 20:00 35.44565 75.45045 13917 ft 219 kts 326°
2026-05-06 20:00 35.45806 75.43936 14688 ft 223 kts 324°
2026-05-06 20:00 35.47040 75.42780 15467 ft 223 kts 324°
2026-05-06 20:00 35.48257 75.41617 16174 ft 221 kts 326°
2026-05-06 20:01 35.49508 75.40535 16769 ft 220 kts 328°
2026-05-06 20:01 35.50784 75.39477 17382 ft 223 kts 328°
2026-05-06 20:01 35.52079 75.38412 18089 ft 225 kts 329°
2026-05-06 20:01 35.53388 75.37334 18681 ft 228 kts 329°
2026-05-06 20:02 35.54711 75.36230 19250 ft 231 kts 326°
2026-05-06 20:02 35.55552 75.35415 19643 ft 233 kts 322°
2026-05-06 20:02 35.57076 75.33520 20416 ft 238 kts 312°
2026-05-06 20:02 35.58073 75.31874 20979 ft 242 kts 305°
2026-05-06 20:03 35.58910 75.30059 21500 ft 246 kts 298°
2026-05-06 20:03 35.59574 75.28084 21871 ft 258 kts 291°
2026-05-06 20:03 35.59934 75.26654 21964 ft 271 kts 288°
2026-05-06 20:03 35.60691 75.23556 22145 ft 293 kts 288°
2026-05-06 20:04 35.61084 75.21942 22233 ft 302 kts 288°
2026-05-06 20:04 35.61699 75.19423 22352 ft 315 kts 288°
2026-05-06 20:04 35.62348 75.16769 22489 ft 334 kts 288°
2026-05-06 20:04 35.63031 75.13958 22635 ft 353 kts 288°
2026-05-06 20:05 35.63749 75.10998 22772 ft 370 kts 288°
2026-05-06 20:05 35.64500 75.07898 22903 ft 386 kts 288°
2026-05-06 20:05 35.65287 75.04661 23016 ft 402 kts 288°
2026-05-06 20:05 35.66102 75.01296 23172 ft 416 kts 288°
2026-05-06 20:06 35.66934 74.97847 23578 ft 424 kts 288°
2026-05-06 20:06 35.67775 74.94357 24008 ft 427 kts 288°
2026-05-06 20:06 35.68610 74.90883 24454 ft 430 kts 288°
2026-05-06 20:06 35.69461 74.87339 24895 ft 433 kts 287°
2026-05-06 20:07 35.70133 74.83716 25311 ft 436 kts 278°
2026-05-06 20:07 35.70303 74.79980 25732 ft 440 kts 269°
2026-05-06 20:07 35.69959 74.76233 26116 ft 443 kts 259°
2026-05-06 20:07 35.69097 74.72584 26527 ft 446 kts 249°
2026-05-06 20:08 35.67770 74.69133 26936 ft 448 kts 242°
2026-05-06 20:08 35.66318 74.65724 27307 ft 450 kts 243°
2026-05-06 20:08 35.64859 74.62303 27656 ft 453 kts 243°
2026-05-06 20:08 35.63394 74.58867 28043 ft 455 kts 243°
2026-05-06 20:09 35.61920 74.55414 28418 ft 457 kts 242°
2026-05-06 20:09 35.60433 74.51941 28757 ft 459 kts 242°
2026-05-06 20:09 35.58962 74.48505 29109 ft 461 kts 242°
2026-05-06 20:09 35.57462 74.45002 29451 ft 463 kts 243°
2026-05-06 20:10 35.55956 74.41486 29768 ft 465 kts 242°
2026-05-06 20:10 35.54443 74.37959 30026 ft 468 kts 242°
2026-05-06 20:10 35.51456 74.31016 30082 ft 452 kts 243°
2026-05-06 20:11 35.48529 74.24207 30082 ft 450 kts 243°
2026-05-06 20:11 35.45622 74.17459 30067 ft 450 kts 243°
2026-05-06 20:12 35.42678 74.10692 30064 ft 450 kts 240°
2026-05-06 20:12 35.38764 74.04742 30044 ft 450 kts 225°
2026-05-06 20:13 35.34312 73.99348 30042 ft 449 kts 225°
2026-05-06 20:13 35.29869 73.93945 30046 ft 449 kts 225°
2026-05-06 20:14 35.25462 73.88598 30050 ft 449 kts 225°
2026-05-06 20:14 35.21014 73.83217 30047 ft 448 kts 225°
2026-05-06 20:15 35.16578 73.77865 30045 ft 448 kts 225°
2026-05-06 20:15 35.12131 73.72501 30067 ft 450 kts 225°
2026-05-06 20:16 35.07672 73.67123 30057 ft 450 kts 226°
2026-05-06 20:16 35.03201 73.61753 30045 ft 452 kts 226°
2026-05-06 20:17 34.98716 73.56374 30050 ft 453 kts 226°
2026-05-06 20:17 34.94233 73.51016 30021 ft 454 kts 225°
2026-05-06 20:18 34.89595 73.45812 30035 ft 456 kts 214°
2026-05-06 20:18 34.86764 73.44076 30026 ft 456 kts 199°
2026-05-06 20:18 34.83655 73.43164 30045 ft 460 kts 192°
2026-05-06 20:19 34.77378 73.41645 30012 ft 459 kts 191°
2026-05-06 20:19 34.71102 73.40168 30015 ft 459 kts 191°
2026-05-06 20:20 34.64828 73.38683 29996 ft 459 kts 191°
2026-05-06 20:20 34.58604 73.37184 29973 ft 460 kts 192°
2026-05-06 20:21 34.52311 73.35668 29931 ft 461 kts 192°
2026-05-06 20:21 34.46011 73.34158 29906 ft 461 kts 192°
2026-05-06 20:22 34.39717 73.32662 29908 ft 461 kts 191°
2026-05-06 20:22 34.33405 73.31165 29831 ft 463 kts 192°
2026-05-06 20:23 34.30240 73.30413 29516 ft 463 kts 192°
2026-05-06 20:23 34.27085 73.29660 28783 ft 461 kts 192°
2026-05-06 20:23 34.23948 73.28910 28117 ft 457 kts 192°
2026-05-06 20:23 34.20877 73.28177 27451 ft 454 kts 192°
2026-05-06 20:24 34.17786 73.27444 26791 ft 451 kts 192°
2026-05-06 20:24 34.14718 73.26721 26138 ft 448 kts 191°
2026-05-06 20:24 34.11664 73.26004 25486 ft 445 kts 191°
2026-05-06 20:24 34.08631 73.25290 24851 ft 442 kts 191°
2026-05-06 20:25 34.05619 73.24576 24213 ft 440 kts 192°
2026-05-06 20:25 34.02621 73.23860 23601 ft 437 kts 191°
2026-05-06 20:25 33.99649 73.23153 22950 ft 434 kts 191°
2026-05-06 20:25 33.96705 73.22457 22370 ft 428 kts 191°
2026-05-06 20:26 33.93798 73.21776 21826 ft 423 kts 191°
2026-05-06 20:26 33.90925 73.21106 21311 ft 419 kts 191°
2026-05-06 20:26 33.88076 73.20440 20789 ft 415 kts 191°
2026-05-06 20:26 33.85288 73.19786 20260 ft 411 kts 191°
2026-05-06 20:27 33.82492 73.19127 19733 ft 408 kts 191°
2026-05-06 20:27 33.79675 73.18463 19174 ft 406 kts 191°
2026-05-06 20:27 33.76914 73.17811 18631 ft 404 kts 191°
2026-05-06 20:27 33.74157 73.17158 18070 ft 402 kts 190°
2026-05-06 20:28 33.71453 73.16521 17473 ft 400 kts 190°
2026-05-06 20:28 33.68731 73.15884 16919 ft 397 kts 191°
2026-05-06 20:28 33.66043 73.15254 16640 ft 387 kts 191°
2026-05-06 20:28 33.63450 73.14647 16512 ft 373 kts 191°
2026-05-06 20:29 33.60946 73.14061 16379 ft 358 kts 191°
2026-05-06 20:29 33.58592 73.13451 16252 ft 334 kts 198°
2026-05-06 20:29 33.56596 73.12238 16103 ft 312 kts 218°
2026-05-06 20:29 33.55119 73.10425 15860 ft 301 kts 238°
2026-05-06 20:30 33.54206 73.08211 15589 ft 294 kts 253°
2026-05-06 20:30 33.52846 73.03595 14685 ft 291 kts 253°
2026-05-06 20:30 33.52184 73.01348 14197 ft 289 kts 253°
2026-05-06 20:31 33.51518 72.99093 13754 ft 285 kts 254°
2026-05-06 20:31 33.50860 72.96866 13329 ft 281 kts 254°
2026-05-06 20:31 33.50208 72.94662 12927 ft 279 kts 254°
2026-05-06 20:31 33.49557 72.92457 12551 ft 281 kts 254°
2026-05-06 20:32 33.48904 72.90251 12271 ft 278 kts 254°
2026-05-06 20:32 33.48262 72.88092 11857 ft 277 kts 254°
2026-05-06 20:32 33.47620 72.85937 11573 ft 271 kts 254°
2026-05-06 20:32 33.46987 72.83812 11259 ft 269 kts 254°
2026-05-06 20:33 33.46372 72.81707 10911 ft 266 kts 258°
2026-05-06 20:33 33.46092 72.79552 10545 ft 259 kts 273°
2026-05-06 20:33 33.46275 72.77437 10202 ft 254 kts 283°
2026-05-06 20:33 33.46588 72.75340 9839 ft 257 kts 282°
2026-05-06 20:34 33.46889 72.73243 9452 ft 252 kts 282°
2026-05-06 20:34 33.47171 72.71232 9092 ft 242 kts 282°
2026-05-06 20:34 33.47442 72.69286 8756 ft 232 kts 282°
2026-05-06 20:34 33.47707 72.67404 8433 ft 227 kts 281°
2026-05-06 20:35 33.47968 72.65551 8113 ft 225 kts 281°
2026-05-06 20:35 33.48227 72.63703 7800 ft 226 kts 281°
2026-05-06 20:35 33.48496 72.61854 7482 ft 225 kts 284°
2026-05-06 20:35 33.49147 72.60179 7158 ft 224 kts 309°
2026-05-06 20:36 33.50361 72.59016 6845 ft 226 kts 334°
2026-05-06 20:36 33.51899 72.58614 6481 ft 231 kts
2026-05-06 20:36 33.53481 72.59028 6116 ft 236 kts 16°
2026-05-06 20:36 33.55041 72.59608 5722 ft 239 kts 15°
2026-05-06 20:37 33.56604 72.60372 5320 ft 243 kts 35°
2026-05-06 20:37 33.57626 72.61966 4943 ft 246 kts 71°
2026-05-06 20:37 33.57715 72.63982 4600 ft 244 kts 103°
2026-05-06 20:37 33.57347 72.65899 4252 ft 234 kts 102°
2026-05-06 20:38 33.57079 72.67802 3812 ft 229 kts 100°
2026-05-06 20:38 33.56820 72.69639 3504 ft 217 kts 101°
2026-05-06 20:38 33.56557 72.71364 3237 ft 204 kts 101°
2026-05-06 20:38 33.56306 72.72984 2971 ft 191 kts 101°
2026-05-06 20:39 33.56073 72.74480 2736 ft 174 kts 102°
2026-05-06 20:39 33.55859 72.75852 2536 ft 160 kts 101°
2026-05-06 20:39 33.55663 72.77111 2364 ft 145 kts 102°
2026-05-06 20:39 33.55482 72.78274 2172 ft 139 kts 100°
2026-05-06 20:40 33.55306 72.79393 1989 ft 135 kts 100°
2026-05-06 20:40 33.55134 72.80488 1831 ft 133 kts 101°
2026-05-06 20:40 33.54963 72.81518 1766 ft 116 kts 101°
2026-05-06 20:40 33.54862 72.82218 1753 ft 47 kts 99°
2026-05-06 20:41 33.54812 72.82570 1756 ft 38 kts 100°
2026-05-06 20:41 33.54768 72.82862 1760 ft 33 kts 99°
2026-05-06 20:41 33.54804 72.83091 1767 ft 21 kts 68°
2026-05-06 20:41 33.54858 72.83225 1765 ft 17 kts 46°
2026-05-06 20:42 33.54897 72.83232 1764 ft 2 kts 352°
2026-05-06 20:42 33.54902 72.83285 1765 ft 10 kts 108°
2026-05-06 20:42 33.54877 72.83391 1768 ft 21 kts 103°
2026-05-06 20:42 33.54893 72.83467 1768 ft 7 kts
2026-05-06 20:43 33.54958 72.83469 1767 ft 10 kts
2026-05-06 20:43 33.55013 72.83484 1771 ft 6 kts 13°
2026-05-06 20:43 33.55057 72.83494 1772 ft 12 kts
2026-05-06 20:43 33.55178 72.83519 1771 ft 22 kts 13°
2026-05-06 20:44 33.55325 72.83514 1772 ft 22 kts 306°
2026-05-06 20:44 33.55377 72.83428 1771 ft 12 kts
2026-05-06 20:44 33.55438 72.83445 1770 ft 0 kts 10°